Flag for Switzerland Weather past 2 weeks in Uster, Zurich, Switzerland

Now
61 °F

Cool.


Feels Like: 61 °F
Forecast: 47 / 67 °F
Wind: 6 mph from Northeast

Location: Zurich Town / Ville.

Current Time: Sep 2, 2014 at 2:04:23 PM

Latest Report: Sep 2, 2014 at 1:00 PM


Visibility: N/A

Pressure: 30.11 "Hg

Humidity: 66%

Dew point: 49 °F

Location of UsterLocation

Historic Weather in Uster — Graph

°F

Uster temperature yesterday

Maximum temperature yesterday: 60 °F (at 3:00 PM)
Minimum temperature yesterday: 51 °F (at 5:00 AM)
Average temperature yesterday: 55 °F

Past Weeks' High & Low Weather Summary

 TemperatureHumidityPressure
High74 °F (Aug 28, 5:00 PM)98% (Aug 19, 8:00 AM)30.20 "Hg (Aug 19, 8:00 AM)
Low49 °F (Sep 2, 4:00 AM)42% (Aug 21, 4:00 PM)29.77 "Hg (Aug 26, 7:00 PM)
Average59 °F77%30.02 "Hg
* Reported Aug 18 12:00 Noon — Sep 2 12:00 Noon, Uster, Weather by CustomWeather, © 2014

Note: Actual official high and low records may vary slightly from our data, if they occured in-between our weather recording intervals... More about our weather records

Advertising

Uster weather history for previous 24 hours

 ConditionsComfort  
Time TempWeatherWind HumidityBarometerVisibility
12:00 PM
Sep 2
60 °FCool.7 mph69%30.11 "HgN/A
11:00 AM58 °FCool.5 mph83%30.13 "HgN/A
10:00 AM55 °FCool.5 mph82%30.14 "HgN/A
9:00 AM53 °FCool.1 mph91%30.15 "HgN/A
8:00 AM51 °FOvercast.3 mph92%30.16 "HgN/A
7:00 AM50 °FCool.3 mph95%30.16 "HgN/A
6:00 AM49 °FCool.2 mph96%30.16 "HgN/A
5:00 AM50 °FCool.1 mph94%30.15 "HgN/A
4:00 AM49 °FCool.3 mph96%30.16 "HgN/A
3:00 AM51 °FCool.1 mph94%30.15 "HgN/A
1:40 AM53 °FCool.2 mph90%30.15 "HgN/A
1:00 AM53 °FCool.3 mph90%30.16 "HgN/A
12:00 AM53 °FCool.3 mph88%30.16 "HgN/A
11:00 PM
Sep 1
54 °FCool.3 mph83%30.16 "HgN/A
10:00 PM55 °FCool.3 mph81%30.16 "HgN/A
9:00 PM56 °FCool.2 mph83%30.16 "HgN/A
8:00 PM56 °FPartly sunny.2 mph79%30.15 "HgN/A
7:00 PM57 °FCool.2 mph75%30.14 "HgN/A
6:00 PM59 °FCool.1 mph68%30.13 "HgN/A
5:00 PM59 °FCool.3 mph66%30.13 "HgN/A
4:00 PM58 °FCool.1 mph78%30.14 "HgN/A
3:00 PM60 °FCool.3 mph69%30.12 "HgN/A
2:00 PM57 °FOvercast.3 mph74%30.13 "HgN/A
Weather by CustomWeather, © 2014

See weather overviewHow to use our weather pages